Regional Weather Roundup
Issued by NWS

Home | Current Version | Previous Version | Text Only | Print | Product List | Glossary On
Versions: 1 2 3 4 5 6 7 8 9 10 11 12 13 14 15 16 17 18 19 20 21 22 23 24 25 26 27 28 29 30 31 32 33 34 35 36 37 38 39 40 41 42 43 44 45 46 47 48 49 50
000
ASUS43 KFSD 281402
RWRSD

WEATHER ROUNDUP FOR SOUTH DAKOTA
NATIONAL WEATHER SERVICE SIOUX FALLS SD
900 AM CDT SUN AUG 28 2016

NOTE: "FAIR" INDICATES FEW OR NO CLOUDS BELOW 12,000 FEET WITH NO
SIGNIFICANT WEATHER AND/OR OBSTRUCTIONS TO VISIBILITY.


SDZ001>005-009-010-012>017-281500-
NORTHWEST AND NORTH CENTRAL SOUTH DAKOTA

CITY           SKY/WX    TMP DP  RH WIND       PRES   REMARKS
BUFFALO          N/A     59  55  87 CALM      29.89R
FAITH            N/A     68  58  70 SW7       29.92R
MOBRIDGE       SUNNY     72  63  73 SE14      29.89S
$$

SDZ012>016-024>037-041>051-057-063-072>074-281500-
SOUTHWEST AND SOUTH CENTRAL SOUTH DAKOTA

CITY           SKY/WX    TMP DP  RH WIND       PRES   REMARKS
RAPID CTY ARPT SUNNY     65  56  72 CALM      29.96R
PIERRE         SUNNY     71  64  78 SE10      29.92S
CUSTER         SUNNY     65  34  31 NW5       30.13R
ELLSWORTH AFB  SUNNY     64  52  63 NW7       29.96R
PHILIP         SUNNY     70  64  81 S6        29.93R
PINE RIDGE     SUNNY     67  59  75 S9        30.02R
WINNER         FAIR      74  66  76 SW16G25   29.97S
$$

SDZ004>011-016>023-039-040-281500-
NORTHEAST SOUTH DAKOTA

CITY           SKY/WX    TMP DP  RH WIND       PRES   REMARKS
ABERDEEN       SUNNY     71  65  81 SE14G23   29.97F
WATERTOWN      SUNNY     71  64  78 SE14      30.05S
BROOKINGS      MOSUNNY   68  65  90 SE15      30.07S
$$

SDZ017-020-022-023-036>040-048>070-281500-
SOUTHEAST SOUTH DAKOTA

CITY           SKY/WX    TMP DP  RH WIND       PRES   REMARKS
SIOUX FALLS    MOSUNNY   70  67  90 SE7       30.08S
HURON          SUNNY     71  66  84 SE13G20   29.99S
CHAMBERLAIN    SUNNY     76  69  78 S10       29.98S
MITCHELL       SUNNY     71  66  84 SE15G22   30.02R
YANKTON        SUNNY     72  66  83 SE7       30.04S
$$

ABBREVIATIONS USED IN REMARKS
   TC - TEMPERATURE IN CELSIUS
  WCI - WIND CHILL INDEX
   HX - HEAT INDEX
  VSB - VISIBILITY





USA.gov is the U.S. government's official web portal to all federal, state and local government web resources and services.